Regional Weather Roundup
Issued by NWS

Home | Current Version | Previous Version | Graphics & Text | Print | Product List | Glossary On
Versions: 1 2 3 4 5 6 7 8 9 10 11 12 13 14 15 16 17 18 19 20 21 22 23 24 25 26 27 28 29 30 31 32 33 34 35 36 37 38 39 40 41 42 43 44 45 46 47 48 49 50
000
ASUS45 KCYS 261310
RWRWY

WYOMING REGIONAL WEATHER ROUNDUP
NATIONAL WEATHER SERVICE CHEYENNE WY
600 AM MST MON JAN 26 2015

NOTE:  "FAIR" INDICATES FEW OR NO CLOUDS BELOW 12,000 FEET
WITH NO SIGNIFICANT WEATHER AND/OR OBSTRUCTIONS TO VISIBILITY.

WYZ001-261400-
YELLOWSTONE NATIONAL PARK

CITY           SKY/WX    TMP DP  RH WIND       PRES   REMARKS
LK YELLOWSTONE   N/A     13   9  84 CALM      30.46R
W YELLOWSTONE  NOT AVBL

$$
WYZ002>013-054>058-071-098>099-261400-
NORTHERN WYOMING

CITY           SKY/WX    TMP DP  RH WIND       PRES   REMARKS
JACKSON        CLOUDY    25  25 100 CALM      30.46S
CODY           FAIR      36  28  75 N6        30.18S WCI  31
GREYBULL       FAIR      15  14  95 SE6       30.23S WCI   6
WORLAND        FAIR      23  19  85 SE5       30.22S WCI  17
SHERIDAN       FAIR      36  26  67 S7        30.09R WCI  30
BUFFALO        FAIR      45  26  47 SW7       30.13R
GILLETTE       FAIR      41  28  60 W13       30.08F
HULETT           N/A    N/A N/A N/A MISG        N/A
NEWCASTLE      FAIR      39  28  65 N8        30.08S WCI  34

$$
WYZ014>020-022>026-101>103-261400-
CENTRAL WYOMING

CITY           SKY/WX    TMP DP  RH WIND       PRES   REMARKS
BIG PINEY      FAIR      18  15  88 S5        30.40R WCI  11
PINEDALE       FAIR      16  16 100 E5        30.40R WCI   9
DUBOIS         FAIR      37  23  56 NW21      30.33S WCI  27
LANDER         FAIR      33  25  72 E5        30.27R WCI  29
RIVERTON       FAIR      26  21  81 W3        30.28R
CASPER         NOT AVBL
DOUGLAS        FAIR      37  27  67 NW9       30.17S WCI  30

$$
WYZ021-027>030-104>119-261400-
SOUTHERN WYOMING

CITY           SKY/WX    TMP DP  RH WIND       PRES   REMARKS
EVANSTON       FAIR      32  27  81 CALM      30.42S
KEMMERER       FAIR      27  23  86 NW7       30.42S WCI  19
FORT BRIDGER   FAIR      38  28  64 W13       30.43S WCI  31
ROCK SPRINGS   FAIR      29  24  82 W9        30.40R WCI  20
DIXON          FAIR      24  21  86 E6        30.46R WCI  17
RAWLINS        FAIR      37  25  61 VRB6      30.36R WCI  32
SARATOGA       FAIR      28  23  80 S8        30.39S WCI  20
LARAMIE        FAIR      24  19  81 SE7       30.30R WCI  16
CHEYENNE       FAIR      44  23  43 W9        30.22R
TORRINGTON     FAIR      40  28  62 NW14      30.13S WCI  32
PINE BLUFFS    FAIR      45  27  49 W20       30.18R

$$


USA.gov is the U.S. government's official web portal to all federal, state and local government web resources and services.